"time",,,,,,"NH3","NH3error",
2020,1,7,10,0,0,2.3242,0.00058734,
2020,1,7,11,0,0,2.3117,0.00034369,
2020,1,7,12,0,0,1.9712,0.00022552,
2020,1,7,13,0,0,1.7596,0.00021793,
2020,1,7,14,0,0,1.5496,0.00018666,
2020,1,7,15,0,0,1.3493,0.00039929,
2020,1,10,9,0,0,2.7221,0.00050496,
2020,1,10,10,0,0,3.4421,0.00033038,
2020,1,10,11,0,0,3.8304,0.00069941,
2020,1,10,12,0,0,1.7514,0.00021959,
2020,1,10,13,0,0,1.3102,0.00035256,
2020,1,13,9,0,0,2.6384,0.00061584,
2020,1,13,10,0,0,1.5112,0.00078321,
2020,1,13,11,0,0,1.1367,0.00043072,
2020,1,13,12,0,0,0.98722,0.00051341,
2020,1,13,14,0,0,0,0.0008088,
2020,1,13,15,0,0,0.21837,0.00062148,
2020,1,16,9,0,0,0.18088,0.00068633,
2020,1,16,10,0,0,0.89501,0.00027994,
2020,1,16,11,0,0,1.5648,0.00073342,
2020,1,16,12,0,0,1.3239,0.00032253,
2020,1,16,13,0,0,2.7681,0.00040054,
2020,1,17,9,0,0,1.426,0.00058714,
2020,1,17,10,0,0,1.9,0.00051311,
2020,1,17,11,0,0,1.8614,0.00046724,
2020,1,17,12,0,0,1.8328,0.00076707,
2020,1,17,13,0,0,1.6126,0.00064591,
2020,1,17,14,0,0,1.4273,0.00068877,
2020,1,17,15,0,0,1.4573,0.00055236,
2020,1,17,16,0,0,1.5014,0.00058258,
2020,1,17,17,0,0,1.098,0.00042425,
2020,1,17,18,0,0,1.2901,0.00049674,
2020,1,17,19,0,0,1.2748,0.00041317,
2020,1,17,20,0,0,1.1492,0.00042359,
2020,1,17,21,0,0,0.91336,0.00050401,
2020,1,17,22,0,0,0.89789,0.00044198,
2020,1,17,23,0,0,0.7706,0.00039584,
2020,1,19,0,0,0,1.3463,0.00039069,
2020,1,19,1,0,0,1.2349,0.00036934,
2020,1,19,2,0,0,1.0697,0.000313,
2020,1,19,3,0,0,1.2028,0.00024634,
2020,1,19,4,0,0,1.06,0.00037056,
2020,1,19,5,0,0,0.83889,0.00033967,
2020,1,19,6,0,0,0.7249,0.00031164,
2020,1,19,7,0,0,0.62401,0.00036354,
2020,1,19,8,0,0,0.56843,0.00029499,
2020,1,19,9,0,0,0.61359,0.00033927,
2020,1,19,10,0,0,0.53341,0.0003308,
2020,1,19,11,0,0,0.41568,0.00036205,
2020,1,19,12,0,0,0.2946,0.00046027,
2020,1,19,13,0,0,-0.0009646,0.00034101,
2020,1,19,14,0,0,0.095495,0.00034652,
2020,1,19,15,0,0,0.26771,0.00029689,
2020,1,19,16,0,0,0.33475,0.00026991,
2020,1,19,17,0,0,0.79807,0.0003062,
2020,1,19,18,0,0,0.98358,0.00026302,
2020,1,19,19,0,0,0.79596,0.00021511,
2020,1,19,20,0,0,0.72721,0.00027528,
2020,1,19,21,0,0,0.7087,0.00020975,
2020,1,19,22,0,0,0.53529,0.00036781,
2020,1,19,23,0,0,0.51567,0.00025342,
2020,1,20,0,0,0,0.47662,0.000281,
2020,1,20,1,0,0,0.45106,0.0002416,
2020,1,20,2,0,0,0.36735,0.00033842,
2020,1,20,3,0,0,0.50897,0.00024039,
2020,1,20,4,0,0,0.90594,0.00040829,
2020,1,20,5,0,0,1.3478,0.00036632,
2020,1,20,6,0,0,1.8093,0.00038956,
2020,1,20,7,0,0,1.9036,0.00028948,
2020,1,20,8,0,0,1.986,0.00042935,
2020,1,20,12,0,0,1.5678,0.00062176,
2020,1,20,13,0,0,1.7342,0.00061723,
2020,1,22,0,0,0,1.2089,0.00029847,
2020,1,22,1,0,0,1.1221,0.00034815,
2020,1,22,2,0,0,1.0792,0.00037763,
2020,1,22,3,0,0,0.68023,0.00031343,
2020,1,22,4,0,0,0.61744,0.00023936,
2020,1,22,5,0,0,0.79307,0.00031559,
2020,1,22,6,0,0,1.4179,0.00079173,
2020,1,22,7,0,0,1.7426,0.00088219,
2020,1,22,8,0,0,1.7168,0.00095527,
2020,1,22,9,0,0,1.609,0.00071977,
2020,1,22,10,0,0,2.1426,0.0017136,
2020,1,22,11,0,0,1.3758,0.00065309,
2020,1,22,12,0,0,0.76867,0.00080477,
2020,1,22,13,0,0,0.60098,0.00051278,
2020,1,22,14,0,0,0.57172,0.00028076,
2020,1,22,15,0,0,1.0954,0.00057017,
2020,1,22,16,0,0,1.184,0.00080548,
2020,1,22,17,0,0,1.1073,0.00027745,
2020,1,22,18,0,0,1.7918,0.00063383,
2020,1,22,19,0,0,1.7596,0.00074056,
2020,1,22,20,0,0,1.6894,0.00026974,
2020,1,22,21,0,0,1.2881,0.00037345,
2020,1,22,22,0,0,1.2475,0.00018994,
2020,1,22,23,0,0,1.1078,0.00024484,
2020,1,23,0,0,0,0.93044,0.00023142,
2020,1,23,1,0,0,0.98508,0.00022348,
2020,1,23,2,0,0,0.6694,0.00023107,
2020,1,23,3,0,0,0.20667,0.00028354,
2020,1,23,4,0,0,0.081706,0.0002231,
2020,1,23,5,0,0,0.5162,0.00038505,
2020,1,23,6,0,0,0.8623,0.00027581,
2020,1,23,7,0,0,0.83564,0.00045096,
2020,1,23,8,0,0,0.57959,0.0003362,
2020,1,23,9,0,0,0.5301,0.00035873,
2020,1,23,10,0,0,0.41498,0.00051651,
2020,1,23,11,0,0,0.57113,0.00040654,
2020,1,23,12,0,0,0.50238,0.00037472,
2020,1,23,13,0,0,0.4123,0.00033497,
2020,1,23,14,0,0,0.49883,0.00029868,
2020,1,23,15,0,0,0.63831,0.00028113,
2020,1,23,16,0,0,0.69012,0.0002832,
2020,1,23,17,0,0,1.277,0.00028731,
2020,1,23,18,0,0,1.7337,0.00027616,
2020,1,23,19,0,0,2.031,0.00035445,
2020,1,23,20,0,0,2.3303,0.00034311,
2020,1,23,21,0,0,2.1424,0.00037883,
2020,1,23,22,0,0,2.1204,0.00033394,
2020,1,23,23,0,0,1.4859,0.00064475,
2020,1,24,0,0,0,0.49804,0.00034133,
2020,1,24,1,0,0,0.053788,0.00022457,
2020,1,24,2,0,0,0.43176,0.00025423,
2020,1,24,3,0,0,0.044236,0.0002172,
2020,1,24,4,0,0,-0.0038466,0.0003039,
2020,1,24,5,0,0,0.25823,0.00037491,
2020,1,24,6,0,0,0.10916,0.0002693,
2020,1,24,7,0,0,0.14501,0.00030413,
2020,1,24,8,0,0,0.30652,0.00054729,
2020,1,24,9,0,0,0.50798,0.00058933,
2020,1,27,9,0,0,2.5883,0.00049227,
2020,1,27,10,0,0,2.2446,0.00037204,
2020,1,27,11,0,0,2.1222,0.00039672,
2020,1,27,12,0,0,2.1153,0.00046289,
2020,1,27,13,0,0,1.6904,0.00035977,
2020,1,27,14,0,0,1.5057,0.00043413,
2020,1,27,15,0,0,1.4296,0.00035118,
2020,1,27,16,0,0,1.255,0.00042041,
2020,1,27,17,0,0,1.1931,0.00043846,
2020,1,27,18,0,0,1.2262,0.00046527,
2020,1,27,19,0,0,1.2421,0.00043474,
2020,1,27,20,0,0,1.2614,0.00053299,
2020,1,27,21,0,0,1.0895,0.00035264,
2020,1,27,22,0,0,0.95101,0.00042651,
2020,1,27,23,0,0,1.0176,0.00036763,
2020,1,28,0,0,0,0.9694,0.00041216,
2020,1,28,1,0,0,0.94132,0.00039702,
2020,1,28,2,0,0,0.8549,0.00041702,
2020,1,28,3,0,0,0.73276,0.00035006,
2020,1,28,4,0,0,0.63343,0.0003863,
2020,1,28,5,0,0,0.59567,0.00040463,
2020,1,28,6,0,0,0.6087,0.0003717,
2020,1,28,7,0,0,0.82779,0.0003347,
2020,1,28,8,0,0,0.61432,0.0003339,
2020,1,28,9,0,0,0.35654,0.00030688,
2020,1,28,10,0,0,0.37017,0.00028325,
2020,1,28,11,0,0,0.39235,0.00031944,
2020,1,28,12,0,0,0.31464,0.00029976,
2020,1,28,13,0,0,0.35116,0.00029111,
2020,1,28,14,0,0,0.43182,0.00037089,
2020,1,28,15,0,0,0.37246,0.0003057,
2020,1,28,16,0,0,0.51088,0.00022829,
2020,1,28,17,0,0,0.57518,0.00028737,
2020,1,28,18,0,0,0.57042,0.00027549,
2020,1,28,19,0,0,0.40715,0.00024531,
2020,1,28,20,0,0,0.046629,0.00020272,
2020,1,28,21,0,0,0.17775,0.00029267,
2020,1,28,22,0,0,0.033306,0.00024081,
2020,1,28,23,0,0,0.00053735,0.00026346,
2020,1,29,0,0,0,0.12582,0.00026517,
2020,1,29,1,0,0,0.067074,0.00021071,
2020,1,29,2,0,0,-0.00047652,0.00024072,
2020,1,29,3,0,0,0.044632,0.00017532,
2020,1,29,4,0,0,0.091913,0.00026006,
2020,1,29,5,0,0,0.31646,0.00024275,
2020,1,29,6,0,0,0.43806,0.0002514,
2020,1,29,7,0,0,0.59938,0.00027972,
2020,1,29,8,0,0,0.8092,0.00028653,
2020,1,29,9,0,0,0.919,0.00028071,
2020,1,29,10,0,0,0.735,0.00028739,
2020,1,29,11,0,0,0.75615,0.00029997,
2020,1,29,12,0,0,0.66065,0.00026277,
2020,1,29,13,0,0,0.80512,0.00029378,
2020,1,29,14,0,0,0.77076,0.00034455,
2020,1,29,15,0,0,0.8988,0.00039363,
2020,1,29,16,0,0,0.89726,0.00030829,
2020,1,29,17,0,0,1.3036,0.00033947,
2020,1,29,18,0,0,1.5966,0.00046352,
2020,1,29,19,0,0,1.5376,0.00035416,
2020,1,29,20,0,0,1.5712,0.00028264,
2020,1,29,21,0,0,1.3619,0.00040964,
2020,1,29,22,0,0,1.437,0.00030663,
2020,1,29,23,0,0,1.1723,0.00033164,
2020,1,30,0,0,0,0.82809,0.00021246,
2020,1,30,1,0,0,0.45898,0.00022809,
2020,1,30,2,0,0,0.25915,0.00029502,
2020,1,30,3,0,0,0.3075,0.00029416,
2020,1,30,4,0,0,0.73239,0.00027535,
2020,1,30,5,0,0,0.73074,0.00028438,
2020,1,30,6,0,0,1.0404,0.00024687,
2020,1,30,7,0,0,1.1484,0.00031908,
2020,1,30,8,0,0,1.1943,0.00035655,
2020,1,30,9,0,0,0.72986,0.00033049,
2020,1,30,10,0,0,0.61972,0.00056495,
2020,1,30,11,0,0,1.8547,0.00044102,
2020,1,30,12,0,0,3.337,0.00036074,
2020,1,30,13,0,0,4.5761,0.00057089,
2020,1,30,14,0,0,6.0369,0.00070497,
2020,1,30,15,0,0,6.8669,0.00073017,
2020,1,30,16,0,0,7.2814,0.00031187,
2020,1,30,17,0,0,7.2208,0.00055267,
2020,1,30,18,0,0,7.2478,0.00045112,
2020,1,30,19,0,0,7.2261,0.0004799,
2020,1,30,20,0,0,7.0897,0.00033695,
2020,1,30,21,0,0,7.0025,0.0006071,
2020,1,30,22,0,0,7.2426,0.00047984,
2020,1,30,23,0,0,7.016,0.00067053,
2020,1,31,0,0,0,7.3031,0.0004949,
2020,1,31,1,0,0,7.3837,0.00046799,
2020,1,31,2,0,0,7.1543,0.00043247,
2020,1,31,3,0,0,6.8302,0.00054373,
2020,1,31,4,0,0,6.7507,0.00043547,
2020,1,31,5,0,0,6.751,0.00045633,
2020,1,31,6,0,0,7.2428,0.00040911,
2020,1,31,7,0,0,6.8802,0.0005054,
2020,1,31,8,0,0,6.8813,0.00052694,
2020,1,31,10,0,0,0.99053,0.00084154,
2020,1,31,11,0,0,0.19694,0.00043542,
2020,1,31,12,0,0,0.28134,0.00029907,
2020,1,31,13,0,0,0.046356,0.00028456,
2020,1,31,14,0,0,0.07405,0.00027554,
2020,1,31,15,0,0,0.17606,0.00023259,
2020,1,31,16,0,0,0.37176,0.0002454,
2020,1,31,17,0,0,0.48416,0.00029331,
2020,1,31,18,0,0,0.56651,0.00033814,
2020,1,31,19,0,0,0.37206,0.00037475,
2020,1,31,20,0,0,0.25822,0.00036066,
2020,1,31,21,0,0,0.10699,0.00040959,
2020,1,31,22,0,0,0.052395,0.00044082,
2020,2,3,10,0,0,1.0346,0.0010047,
2020,2,3,11,0,0,1.2152,0.011003,
2020,2,3,12,0,0,1.2956,0.0010339,
2020,2,3,13,0,0,1.2565,0.0004537,
2020,2,3,14,0,0,1.6075,0.0013323,
2020,2,3,15,0,0,1.3765,0.00086699,
2020,2,3,16,0,0,1.5408,0.00079653,
2020,2,3,17,0,0,1.2153,0.00075055,
2020,2,3,18,0,0,1.049,0.00085337,
2020,2,3,19,0,0,1.0186,0.0010278,
2020,2,3,20,0,0,0.79487,0.0040208,
2020,2,3,21,0,0,0,0.0016367,
2020,2,3,22,0,0,0.1035,0.0016209,
2020,2,3,23,0,0,0.19774,0.0011836,
2020,2,4,0,0,0,0.23689,0.0012783,
2020,2,4,1,0,0,0.31646,0.00091212,
2020,2,4,2,0,0,0.21396,0.0014016,
2020,2,4,3,0,0,0.26649,0.0012923,
2020,2,4,4,0,0,0.20691,0.0013355,
2020,2,4,5,0,0,0.28277,0.0010076,
2020,2,4,6,0,0,0.38207,0.0010015,
2020,2,4,7,0,0,0.68724,0.0015566,
2020,2,4,8,0,0,0.40724,0.0016668,
2020,2,4,9,0,0,0.29418,0.00080128,
2020,2,4,10,0,0,0.47594,0.00074825,
2020,2,4,11,0,0,0.47108,0.0008723,
2020,2,4,12,0,0,0.40502,0.00077043,
2020,2,4,13,0,0,0.48329,0.00066775,
2020,2,4,14,0,0,0.51777,0.00072288,
2020,2,4,15,0,0,0.61654,0.00058301,
2020,2,4,16,0,0,0.7404,0.00070831,
2020,2,4,17,0,0,1.0521,0.00072297,
2020,2,4,18,0,0,1.0935,0.00061815,
2020,2,4,19,0,0,1.1198,0.00067257,
2020,2,4,20,0,0,1.1033,0.00060404,
2020,2,4,21,0,0,1.1174,0.0007825,
2020,2,4,22,0,0,1.1868,0.00072985,
2020,2,4,23,0,0,1.158,0.00078164,
2020,2,5,0,0,0,0.90764,0.00050443,
2020,2,5,1,0,0,0.73553,0.00061508,
2020,2,5,2,0,0,0.71467,0.00069841,
2020,2,5,3,0,0,0.8179,0.0010066,
2020,2,5,4,0,0,0.83647,0.00085582,
2020,2,5,5,0,0,0.95086,0.00069168,
2020,2,5,6,0,0,1.1397,0.0005997,
2020,2,5,7,0,0,1.3344,0.00080533,
2020,2,5,8,0,0,1.3761,0.00072246,
2020,2,5,9,0,0,1.2281,0.0009653,
2020,2,5,10,0,0,1.0982,0.0010432,
2020,2,5,11,0,0,1.0325,0.00097425,
2020,2,5,12,0,0,0.98407,0.001089,
2020,2,5,13,0,0,1.3266,0.00086933,
2020,2,5,14,0,0,1.1279,0.00099812,
2020,2,5,15,0,0,1.0219,0.00077166,
2020,2,5,16,0,0,1.2632,0.00070573,
2020,2,5,17,0,0,1.4445,0.0007395,
2020,2,5,18,0,0,1.2181,0.00077294,
2020,2,5,19,0,0,1.0317,0.00062033,
2020,2,5,20,0,0,1.1095,0.00077909,
2020,2,5,21,0,0,1.0312,0.00068231,
2020,2,5,22,0,0,0.87725,0.00073884,
2020,2,5,23,0,0,0.95779,0.00066887,
2020,2,7,0,0,0,1.6276,0.00095868,
2020,2,7,1,0,0,1.5631,0.0012379,
2020,2,7,2,0,0,1.3431,0.00098914,
2020,2,7,3,0,0,1.1542,0.0012376,
2020,2,7,4,0,0,1.3921,0.00092591,
2020,2,7,5,0,0,1.5675,0.00091076,
2020,2,7,6,0,0,1.5031,0.00074855,
2020,2,7,7,0,0,2.0955,0.0013702,
2020,2,7,8,0,0,1.8808,0.0016656,
2020,2,7,9,0,0,1.8948,0.001222,
2020,2,7,10,0,0,2.0942,0.0013774,
2020,2,7,11,0,0,2.2704,0.0013078,
2020,2,7,12,0,0,2.4997,0.001821,
2020,2,7,13,0,0,2.7611,0.0021154,
2020,2,7,14,0,0,2.9806,0.0015058,
2020,2,7,15,0,0,3.0111,0.00095536,
2020,2,7,16,0,0,3.2072,0.002466,
2020,2,7,17,0,0,3.8155,0.00089813,
2020,2,7,18,0,0,3.7116,0.0015276,
2020,2,7,19,0,0,4.0729,0.0013948,
2020,2,7,20,0,0,4.2927,0.0016463,
2020,2,7,21,0,0,4.1893,0.0016012,
2020,2,7,22,0,0,3.4561,0.0023108,
2020,2,7,23,0,0,3.3107,0.0014382,
2020,2,8,0,0,0,3.2831,0.001611,
2020,2,8,1,0,0,3.3296,0.0014301,
2020,2,8,2,0,0,3.1833,0.00162,
2020,2,8,3,0,0,2.9652,0.0017992,
2020,2,8,4,0,0,2.824,0.0020449,
2020,2,8,5,0,0,2.779,0.0014973,
2020,2,8,6,0,0,2.8965,0.0014824,
2020,2,8,7,0,0,2.8209,0.0013776,
2020,2,8,8,0,0,2.958,0.0014768,
2020,2,8,9,0,0,2.9564,0.00093704,
2020,2,8,10,0,0,2.8382,0.0012843,
2020,2,8,11,0,0,2.7728,0.0012213,
2020,2,8,12,0,0,2.7589,0.0011323,
2020,2,8,13,0,0,2.6263,0.0014191,
2020,2,8,14,0,0,2.6549,0.0013112,
2020,2,8,15,0,0,2.859,0.0012652,
2020,2,8,16,0,0,2.2911,0.001001,
2020,2,8,17,0,0,1.8771,0.00072367,
2020,2,8,18,0,0,1.7178,0.00081709,
2020,2,8,19,0,0,1.7484,0.0007652,
2020,2,8,20,0,0,1.8631,0.00080784,
2020,2,8,21,0,0,1.6553,0.00078268,
2020,2,8,22,0,0,1.5014,0.00064045,
2020,2,8,23,0,0,1.5594,0.00076965,
2020,2,9,0,0,0,1.5532,0.00085412,
2020,2,9,1,0,0,1.4505,0.00075036,
2020,2,9,2,0,0,1.4169,0.0005768,
2020,2,9,3,0,0,1.2936,0.00052184,
2020,2,9,4,0,0,1.1848,0.00067145,
2020,2,9,5,0,0,1.1529,0.00074209,
2020,2,9,6,0,0,1.1284,0.00071208,
2020,2,9,7,0,0,1.0211,0.00061038,
2020,2,9,8,0,0,0.93397,0.00064364,
2020,2,9,9,0,0,1.233,0.00052636,
2020,2,9,10,0,0,1.1862,0.00050404,
2020,2,9,11,0,0,1.3733,0.00078502,
2020,2,9,12,0,0,1.3205,0.0004789,
2020,2,9,13,0,0,1.3486,0.00047644,
2020,2,9,14,0,0,1.2546,0.00072723,
2020,2,9,15,0,0,1.5368,0.00072405,
2020,2,9,16,0,0,1.3442,0.00067251,
2020,2,9,17,0,0,1.2449,0.00077304,
2020,2,9,18,0,0,0.92083,0.00076001,
2020,2,9,19,0,0,0.57249,0.001164,
2020,2,9,20,0,0,0.48888,0.0010498,
2020,2,9,21,0,0,0.29584,0.00097382,
2020,2,9,22,0,0,0.30559,0.0009013,
2020,2,9,23,0,0,0.30353,0.00073889,
2020,2,10,0,0,0,0.22393,0.00076242,
2020,2,10,1,0,0,0.22443,0.0014706,
2020,2,10,2,0,0,0.26899,0.0010938,
2020,2,10,3,0,0,0.30638,0.0012731,
2020,2,10,4,0,0,0.16991,0.001061,
2020,2,10,5,0,0,0.31982,0.0028404,
2020,2,10,6,0,0,0.036608,0.0017355,
2020,2,10,7,0,0,0.17212,0.0013744,
2020,2,10,8,0,0,0.36339,0.0011486,
2020,2,10,9,0,0,0.31717,0.00072581,
2020,2,10,10,0,0,0.41405,0.00064651,
2020,2,10,11,0,0,0.52107,0.00059333,
2020,2,10,12,0,0,0.52998,0.00088147,
2020,2,10,13,0,0,0.5179,0.00081861,
2020,2,10,14,0,0,0.55889,0.00084773,
2020,2,10,15,0,0,0.70517,0.001191,
2020,2,10,16,0,0,0.75751,0.0011188,
2020,2,10,17,0,0,0.67674,0.00057509,
2020,2,10,18,0,0,0.64798,0.001053,
2020,2,10,19,0,0,0.44666,0.0018041,
2020,2,10,20,0,0,0.20303,0.0010479,
2020,2,10,21,0,0,0.22175,0.00077652,
2020,2,10,22,0,0,0.18075,0.0010655,
2020,2,10,23,0,0,0.1863,0.00096924,
2020,2,12,0,0,0,0.2311,0.00080358,
2020,2,12,1,0,0,0.34375,0.00067945,
2020,2,12,2,0,0,0.34297,0.00065895,
2020,2,12,3,0,0,0.38292,0.00070908,
2020,2,12,4,0,0,0.37795,0.00064216,
2020,2,12,5,0,0,0.51961,0.00057199,
2020,2,12,6,0,0,0.67007,0.00062091,
2020,2,12,7,0,0,0.84142,0.00083267,
2020,2,12,8,0,0,1.3135,0.00076497,
2020,2,12,9,0,0,1.1636,0.00090449,
2020,2,12,10,0,0,1.1454,0.00097764,
2020,2,12,11,0,0,1.1423,0.0010881,
2020,2,12,12,0,0,0.98429,0.00091226,
2020,2,12,13,0,0,1.1385,0.00092049,
2020,2,12,14,0,0,1.2366,0.0013738,
2020,2,12,15,0,0,1.3802,0.0010385,
2020,2,12,16,0,0,1.717,0.0011113,
2020,2,12,17,0,0,1.7995,0.0010933,
2020,2,12,18,0,0,2.2072,0.00082658,
2020,2,12,19,0,0,2.2701,0.00083309,
2020,2,12,20,0,0,2.0338,0.00089703,
2020,2,12,21,0,0,1.9613,0.00064216,
2020,2,12,22,0,0,1.3476,0.00082,
2020,2,12,23,0,0,1.3312,0.0010073,
2020,2,13,0,0,0,1.2748,0.00067817,
2020,2,13,1,0,0,1.1637,0.00078334,
2020,2,13,2,0,0,1.0878,0.00055857,
2020,2,13,3,0,0,0.89863,0.00059213,
2020,2,13,4,0,0,0.73724,0.00076704,
2020,2,13,5,0,0,0.85969,0.00056576,
2020,2,13,6,0,0,0.8446,0.0007115,
2020,2,13,7,0,0,0.82839,0.00070019,
2020,2,13,8,0,0,1.0819,0.00070931,
2020,2,13,9,0,0,0.9756,0.0025251,
2020,2,13,10,0,0,1.2344,0.00068152,
2020,2,13,11,0,0,1.3539,0.00078913,
2020,2,13,12,0,0,1.4908,0.0007785,
2020,2,13,13,0,0,1.3749,0.00090689,
2020,2,13,14,0,0,1.418,0.00094697,
2020,2,13,15,0,0,1.1831,0.00057353,
2020,2,13,16,0,0,1.4864,0.00078231,
2020,2,13,17,0,0,1.7206,0.00080386,
2020,2,13,18,0,0,1.5894,0.00079658,
2020,2,13,19,0,0,1.3152,0.00079385,
2020,2,13,20,0,0,1.352,0.00086412,
2020,2,13,21,0,0,1.3128,0.00084299,
2020,2,13,22,0,0,1.2462,0.00050745,
2020,2,13,23,0,0,1.2708,0.00065937,
2020,2,14,0,0,0,1.1728,0.00088617,
2020,2,14,1,0,0,1.0863,0.00042334,
2020,2,14,2,0,0,1.2792,0.00078735,
2020,2,14,3,0,0,1.2839,0.0007303,
2020,2,14,4,0,0,1.2779,0.00062706,
2020,2,14,5,0,0,1.2767,0.00065313,
2020,2,14,6,0,0,1.364,0.00076283,
2020,2,14,7,0,0,1.5334,0.00063809,
2020,2,14,8,0,0,1.5597,0.00058609,
2020,2,14,9,0,0,1.4502,0.00059073,
2020,2,14,10,0,0,1.6699,0.00066101,
2020,2,14,11,0,0,1.474,0.00089611,
2020,2,14,12,0,0,1.4124,0.00079578,
2020,2,14,13,0,0,1.3659,0.00078408,
2020,2,14,14,0,0,1.397,0.0008667,
2020,2,14,15,0,0,1.5195,0.00075111,
2020,2,14,16,0,0,1.8144,0.00069646,
2020,2,14,17,0,0,2.0732,0.00074012,
2020,2,14,18,0,0,2.3242,0.00064204,
2020,2,14,19,0,0,2.1431,0.00067126,
2020,2,14,20,0,0,2.3628,0.00067651,
2020,2,14,21,0,0,2.4434,0.00051423,
2020,2,14,22,0,0,2.0591,0.00069137,
2020,2,14,23,0,0,1.7064,0.00094088,
2020,2,15,0,0,0,1.5044,0.00057636,
2020,2,15,1,0,0,1.5154,0.0006107,
2020,2,15,2,0,0,1.3934,0.00070258,
2020,2,15,3,0,0,1.3294,0.00066462,
2020,2,15,4,0,0,1.3185,0.00074195,
2020,2,15,5,0,0,1.8089,0.00088993,
2020,2,15,6,0,0,2.0649,0.00081478,
2020,2,15,7,0,0,1.2749,0.00058117,
2020,2,15,8,0,0,1.4082,0.0006939,
2020,2,15,9,0,0,1.1428,0.00058204,
2020,2,15,10,0,0,1.0759,0.00063683,
2020,2,15,11,0,0,0.95443,0.00067757,
2020,2,15,12,0,0,0.97328,0.00078779,
2020,2,15,13,0,0,1.1513,0.00064805,
2020,2,15,14,0,0,1.1502,0.0007452,
2020,2,15,15,0,0,1.2043,0.00065504,
2020,2,15,16,0,0,1.4077,0.00069289,
2020,2,15,17,0,0,1.429,0.00066777,
2020,2,15,18,0,0,1.4158,0.00074609,
2020,2,15,19,0,0,1.4087,0.00093872,
2020,2,15,20,0,0,1.5338,0.0010123,
2020,2,15,21,0,0,1.4412,0.00085572,
2020,2,15,22,0,0,1.238,0.00086368,
2020,2,15,23,0,0,1.2627,0.00083559,
2020,2,16,0,0,0,1.3504,0.0010116,
2020,2,16,1,0,0,1.2437,0.00089924,
2020,2,16,2,0,0,1.3291,0.00091563,
2020,2,16,3,0,0,1.37,0.0009476,
2020,2,16,4,0,0,1.5491,0.00098374,
2020,2,16,5,0,0,1.4908,0.00096561,
2020,2,16,6,0,0,1.6942,0.0008808,
2020,2,16,7,0,0,1.8912,0.00083026,
2020,2,16,8,0,0,1.9071,0.00094207,
2020,2,16,9,0,0,1.6669,0.00094961,
2020,2,16,10,0,0,1.5913,0.00099724,
2020,2,16,11,0,0,1.5382,0.00081783,
2020,2,16,12,0,0,1.525,0.00070301,
2020,2,16,13,0,0,1.5125,0.00092565,
2020,2,16,14,0,0,1.4831,0.0005401,
2020,2,16,15,0,0,1.4589,0.0008349,
2020,2,16,16,0,0,1.5879,0.00070351,
2020,2,16,17,0,0,1.89,0.00077084,
2020,2,16,18,0,0,1.9278,0.0014632,
2020,2,16,19,0,0,0.093984,0.0013548,
2020,2,16,20,0,0,0.066056,0.0011967,
2020,2,16,21,0,0,0.071071,0.0011112,
2020,2,16,22,0,0,-0.0062006,0.0013399,
2020,2,16,23,0,0,0.057699,0.0014356,
2020,2,17,0,0,0,0.037826,0.0011978,
2020,2,17,1,0,0,0.19012,0.0012647,
2020,2,17,2,0,0,0.14287,0.00098801,
2020,2,17,3,0,0,0.090515,0.0013764,
2020,2,17,4,0,0,0.15797,0.0014805,
2020,2,17,5,0,0,0.49953,0.0018215,
2020,2,17,6,0,0,0.42017,0.0012354,
2020,2,17,7,0,0,0.63068,0.0016653,
2020,2,17,8,0,0,0.48879,0.0011821,
2020,2,17,9,0,0,0.30219,0.0019004,
2020,2,17,10,0,0,0.090284,0.0015887,
2020,2,17,11,0,0,0.36131,0.0015981,
2020,2,17,12,0,0,0.50537,0.0013428,
2020,2,17,13,0,0,0.67816,0.0011748,
2020,2,17,14,0,0,0.31616,0.002186,
2020,2,17,15,0,0,0.13428,0.0010946,
2020,2,17,16,0,0,0.24347,0.0013584,
2020,2,17,17,0,0,0.34544,0.0015296,
2020,2,17,18,0,0,0.6056,0.0014679,
2020,2,17,19,0,0,0.17916,0.0012708,
2020,2,17,20,0,0,0.047048,0.001167,
2020,2,17,21,0,0,0.0078917,0.0012989,
2020,2,17,22,0,0,-0.035549,0.0011297,
2020,2,17,23,0,0,-0.03641,0.0012629,
2020,2,18,0,0,0,0.91288,0.0011924,
2020,2,18,1,0,0,0.92546,0.0013467,
2020,2,18,2,0,0,0.9098,0.0012609,
2020,2,18,3,0,0,0.94881,0.0012837,
2020,2,18,4,0,0,1.0335,0.0014019,
2020,2,18,5,0,0,1.1401,0.0012771,
2020,2,18,6,0,0,1.2836,0.0012679,
2020,2,18,7,0,0,1.4208,0.0011036,
2020,2,18,8,0,0,1.8371,0.0011058,
2020,2,18,9,0,0,1.5316,0.00061832,
2020,2,18,10,0,0,1.6174,0.00049976,
2020,2,18,11,0,0,1.5459,0.00071225,
2020,2,18,12,0,0,1.2881,0.00075912,
2020,2,18,13,0,0,1.6415,0.00062154,
2020,2,18,14,0,0,1.3432,0.00047117,
2020,2,18,15,0,0,1.4752,0.00050573,
2020,2,18,16,0,0,1.6549,0.00050626,
2020,2,18,17,0,0,-0.015245,0.0060166,
2020,2,18,18,0,0,1.7085,0.0005884,
2020,2,18,19,0,0,1.7758,0.00054703,
2020,2,18,20,0,0,1.6445,0.00057733,
2020,2,18,21,0,0,1.5016,0.00064087,
2020,2,18,22,0,0,1.4734,0.00057041,
2020,2,18,23,0,0,1.3329,0.00073729,
2020,2,19,0,0,0,0.98254,0.00073906,
2020,2,19,1,0,0,0.6644,0.00040414,
2020,2,19,2,0,0,0.84028,0.0006019,
2020,2,19,3,0,0,0.80161,0.00071851,
2020,2,19,4,0,0,0.85021,0.00069559,
2020,2,19,5,0,0,1.1287,0.00070939,
2020,2,19,6,0,0,1.4495,0.00071883,
2020,2,19,7,0,0,1.5487,0.00060288,
2020,2,19,8,0,0,1.7079,0.00062999,
2020,2,19,9,0,0,1.5565,0.00043092,
2020,2,19,10,0,0,1.617,0.00042556,
2020,2,19,11,0,0,1.4914,0.00039031,
2020,2,19,12,0,0,1.5948,0.00045634,
2020,2,19,13,0,0,1.6378,0.00047978,
2020,2,19,14,0,0,1.8596,0.00050879,
2020,2,19,15,0,0,1.858,0.00048885,
2020,2,19,16,0,0,1.663,0.00058074,
2020,2,19,17,0,0,1.6558,0.00066777,
2020,2,19,18,0,0,1.7158,0.00055639,
2020,2,19,19,0,0,1.9428,0.00062553,
2020,2,19,20,0,0,1.9789,0.00055858,
2020,2,19,21,0,0,1.8877,0.00071244,
2020,2,19,22,0,0,1.9939,0.00065019,
2020,2,19,23,0,0,1.8045,0.00069303,
2020,2,20,0,0,0,1.498,0.00072953,
2020,2,20,1,0,0,1.4346,0.00061844,
2020,2,20,2,0,0,1.4866,0.00075396,
2020,2,20,3,0,0,1.534,0.00074445,
2020,2,20,4,0,0,1.5401,0.00068878,
2020,2,20,5,0,0,1.9079,0.00073954,
2020,2,20,6,0,0,1.8872,0.00093562,
2020,2,20,7,0,0,1.9107,0.00089707,
2020,2,20,8,0,0,1.8362,0.00080376,
2020,2,20,9,0,0,1.81,0.0006244,
2020,2,20,10,0,0,1.6937,0.00068524,
2020,2,20,11,0,0,1.8945,0.00071617,
2020,2,20,12,0,0,2.1188,0.00053186,
2020,2,20,13,0,0,2.2072,0.00057194,
2020,2,20,14,0,0,2.3505,0.00070289,
2020,2,20,15,0,0,2.3602,0.00058805,
2020,2,20,16,0,0,2.1753,0.00069637,
2020,2,20,17,0,0,2.1752,0.0030291,
2020,2,20,18,0,0,0.68095,0.0017235,
2020,2,20,19,0,0,0.91407,0.0016584,
2020,2,20,20,0,0,0.68499,0.0012959,
2020,2,20,21,0,0,0.95499,0.0012976,
2020,2,20,22,0,0,1.029,0.0012099,
2020,2,20,23,0,0,1.0545,0.00097131,
2020,2,21,0,0,0,0.96957,0.00079835,
2020,2,21,1,0,0,0.92636,0.00086701,
2020,2,21,2,0,0,0.77359,0.00080937,
2020,2,21,3,0,0,0.72588,0.0006834,
2020,2,21,4,0,0,0.86215,0.00094111,
2020,2,21,5,0,0,1.0012,0.00099275,
2020,2,21,6,0,0,1.3083,0.00085674,
2020,2,21,7,0,0,1.7102,0.0016188,
2020,2,21,8,0,0,2.1798,0.001131,
2020,2,21,9,0,0,1.8552,0.00095652,
2020,2,21,10,0,0,1.5833,0.00076856,
2020,2,21,11,0,0,1.356,0.00056729,
2020,2,21,12,0,0,1.2801,0.00047548,
2020,2,21,13,0,0,1.5776,0.00041817,
2020,2,21,14,0,0,1.4032,0.00047135,
2020,2,21,15,0,0,1.3966,0.00046311,
2020,2,21,16,0,0,1.6782,0.00040283,
2020,2,21,17,0,0,2.1053,0.00046496,
2020,2,21,18,0,0,2.2137,0.00046252,
2020,2,21,19,0,0,2.3283,0.00058229,
2020,2,21,20,0,0,2.1571,0.00060085,
2020,2,21,21,0,0,1.9716,0.00059309,
2020,2,21,22,0,0,2.0697,0.0006224,
2020,2,21,23,0,0,2.3355,0.00053006,
2020,2,22,0,0,0,2.3228,0.00064369,
2020,2,22,1,0,0,2.3767,0.00062029,
2020,2,22,2,0,0,2.2767,0.00065048,
2020,2,22,3,0,0,1.9482,0.00051585,
2020,2,22,4,0,0,1.5992,0.00063018,
2020,2,22,5,0,0,1.8654,0.00066822,
2020,2,22,6,0,0,2.0881,0.00054249,
2020,2,22,7,0,0,2.4625,0.00053763,
2020,2,22,8,0,0,2.3195,0.00061049,
2020,2,22,9,0,0,2.4469,0.00042557,
2020,2,22,10,0,0,2.7483,0.00072241,
2020,2,22,11,0,0,3.1503,0.00075749,
2020,2,22,12,0,0,2.954,0.00066722,
2020,2,22,13,0,0,2.9563,0.00088248,
2020,2,22,14,0,0,3.1785,0.0010134,
2020,2,22,15,0,0,3.2087,0.0010019,
2020,2,22,16,0,0,3.1937,0.0011293,
2020,2,22,17,0,0,3.2952,0.00085646,
2020,2,22,18,0,0,3.4132,0.00081364,
2020,2,22,19,0,0,3.3256,0.00073472,
2020,2,22,20,0,0,2.9692,0.00045638,
2020,2,22,21,0,0,2.8078,0.00067334,
2020,2,22,22,0,0,2.9667,0.00059116,
2020,2,22,23,0,0,2.9228,0.00069521,
2020,2,23,0,0,0,2.7856,0.00093954,
2020,2,23,1,0,0,3.0569,0.0010842,
2020,2,23,2,0,0,2.971,0.001131,
2020,2,23,3,0,0,3.1189,0.00094706,
2020,2,23,4,0,0,2.9659,0.0011653,
2020,2,23,5,0,0,2.7888,0.0011969,
2020,2,23,6,0,0,2.6014,0.0010963,
2020,2,23,7,0,0,2.5512,0.0012565,
2020,2,23,8,0,0,2.4275,0.0012482,
2020,2,23,9,0,0,2.0299,0.0012862,
2020,2,23,10,0,0,1.843,0.0012402,
2020,2,23,11,0,0,1.8918,0.0012693,
2020,2,23,12,0,0,1.8278,0.0011632,
2020,2,23,13,0,0,1.902,0.0011242,
2020,2,23,14,0,0,1.7825,0.0010834,
2020,2,23,15,0,0,1.7985,0.0011677,